COSMOS 1275 DEB

Satellite information

Favourite Embed

Satellite Type and Status

DEBRISIN ORBIT

Key statistics

Satellite COSMOS 1275 DEB at a glance.

Uptime

16105

Days in orbit

Revolutions

≈ 14.0

Per day

Orbit

LEO

Low Earth Orbit

Inclination

82.7

Latest

Satellite identification and parameters

Extended collection of information and parameters for COSMOS 1275 DEB.

Object identification

Identified? True

Debris? True

Object name: COSMOS 1275 DEB

International designator: 1981-053EQ

Object number (NORAD): 13018

Object ID (CCSDS): 13018

Country: COMMONWEALTH OF INDEPENDENT STATES (CIS)

Current information (Y/N): Y

RCS size: SMALL

Orbital parameters

Period: 103.198 minutes

Inclination: 82.6729 deg

SMA: 7288.009 km

Apoapsis: 946.886 km

Periapsis: 872.863 km

RAAN: 277.2486 deg

Eccentricy: 0.0050784

Argument of periapsis: 192.6481 deg

Mean anomaly: 292.9003 deg

Mean motion: 13.95369958 rev/day

Mean motion (dot): 0.0000092 rev/day2

B* drag term: 0.00066097 1/REarth

Two-line elements (TLE)

Creation date: July 8, 2025, 2:27 a.m.

Reference frame: TEME

Reference center: EARTH

Epoch: July 7, 2025, 4:59 p.m. UTC

TLE line 0: 0 COSMOS 1275 DEB

TLE line 1: 1 13018U 81053EQ 25188.70783688 .00000920 00000-0 66097-3 0 9993

TLE line 2: 2 13018 82.6729 277.2486 0050784 192.6481 292.9003 13.95369958197178

Live tracking on map

Real-time ground track for satellite COSMOS 1275 DEB.

In-orbit conjunctions

A list of the most updated potential collisions computed for object COSMOS 1275 DEB.

Target Orbit TCA Probability of collision Miss distance Type
FENGYUN 1C DEB SSO 2024-10-24 08:22:08 0.000324069 66.0 (m) DEBRIS
NIMBUS 7 SSO 2024-06-19 03:52:55 0.0009966641 108.0 (m) PAYLOAD

Associated space launch

Navigation satellite providing location information for the Tsiklon-B navigation system

COSMOS 1275 DEB was lifted into orbit during the mission ‘Kosmos-3M | Parus 27’, on board a Kosmos-3M space rocket.

The launch took place on June 4, 1981, 3:41 p.m. from 132/2.

For more information about the launch, click the button.

Launch to space Kosmos-3M | Parus 27
Kosmos-3M | Parus 27

Agency: N/A

Status: Launch Successful

Launch date: June 4, 1981, 3:41 p.m. UTC

Rocket: Kosmos-3M

Launch pad: 132/2

Location: Plesetsk Cosmodrome, Russian Federation

...

Latest news about this satellite

There are no fresh news available about this satellite. Check back as we update our databases every day.


Newsletter sign-up

Weekly statistics, charts and insights to help you stay on top of the space industry.